Погода в Волоке

Россия / Тверская область     56°51′17″N   32°02′38″E
темп.,
°C
ветер,
м/с
пор.,
м/с
влажн.,
%
обл.,
%
осадки,
мм/ч
давл.,
гПа
погр.,
м
9 мая, вс
вс900:00+1сз4119059 0.0 1011508
03:00+2сз5119091 0.0 1013815
06:000зсз311916 0.0 1015446
09:00+5сз47615 0.0 1017739
12:00+9сз57428 0.0 10181985
15:00+11сз58345 0.0 10192224
18:00+10сз36425 0.0 10202176
21:00+5зсз22715 0.0 102310
10 мая, пн
пн1000:00+3ююз117310 0.0 102510
03:00+2ююз23805 0.0 102642
06:00+2ю277728 0.0 1027157
09:00+8ю4956100 0.0 1027472
12:00+13ююз564690 0.0 10271119
15:00+15ююз45475 0.0 10261243
18:00+15ююз345516 0.0 10261052
21:00+9ю357928 0.0 102864
11 мая, вт
вт1100:00+7ю25865 0.0 102983
03:00+6ю22895 0.0 103037
06:00+6ююв25873 0.0 1030102
09:00+13ююв355636 0.0 1029471
12:00+17юв46435 0.0 10281117
15:00+19вюв34415 0.0 10271386
18:00+18вюв35465 0.0 10271095
21:00+10юв310715 0.0 1027186
12 мая, ср
ср1200:00+8вюв26785 0.0 1027111
03:00+7вюв24845 0.0 102766
06:00+8в26860 0.0 1026132
09:00+15в476117 0.0 1025480
12:00+20в59501 0.0 10231393
15:00+18вюв61065100 0.3 10211239
18:00+15юв4118492 0.8 1022867
21:00+11юв269622 0.9 1022158
13 мая, чт
чт1300:00+12в239388 0.0 102191
03:00+12всв259690 0.0 1020175
06:00+12всв3998100 0.3 1018392
09:00+13вюв4996100 0.9 1016758
12:00+16юв5974100 0.4 10151274
15:00+15ююв5107655 1.5 10151302
18:00+16ююв41068100 0.4 10151414
21:00+12вюв2785100 0.4 1015134